Cloud_Cover
0 0 0 0 0 0 0 0 0 0 0 0 0 0 0 0 0 0 0 0 0 0 20 32 36 44 32 20 12 8 0 0 0 0 8 8 0 0 0 0 0 0 0 0 0 0 0 0 0 0 0 0 0 0 0 0 0 0 0 0 0 0 0 0 0 0 0 0 0 0 0 0 0 0 0 0 0 0 0 0 0 0 0 0 0 0 0 0 0 0 0 0 0 0 0 0 0 0 0 0 0 0 0
0 0 0 0 0 0 0 0 0 0 0 0 0 0 0 0 0 0 0 0 0 8 24 36 36 44 32 24 12 8 20 12 8 8 12 12 8 8 8 0 0 0 0 0 0 0 0 0 0 0 0 0 0 0 0 0 0 0 0 0 0 0 0 0 0 0 0 0 0 0 0 0 0 0 0 0 0 0 0 0 0 0 0 0 0 0 0 0 0 0 0 0 0 0 0 0 0 0 0 0 0 0 0
0 0 0 0 0 0 0 0 0 0 0 0 0 0 0 0 0 0 0 0 0 12 20 20 20 20 32 24 20 8 24 32 24 20 24 24 20 12 12 8 0 0 0 0 0 0 0 0 0 0 0 0 0 0 0 0 0 0 0 0 0 0 0 0 0 0 0 0 0 0 0 0 0 0 0 0 0 0 0 0 0 0 0 0 0 0 0 0 0 0 0 0 0 0 0 0 0 0 0 0 0 0 0
0 0 0 0 0 0 0 0 0 0 0 0 0 0 0 0 0 0 0 0 0 8 0 8 12 24 36 32 20 12 8 12 20 20 20 20 12 20 12 0 0 0 0 0 0 0 0 0 0 0 0 0 0 8 8 8 0 0 0 0 0 0 0 0 0 0 0 0 0 0 0 0 0 0 0 0 0 0 0 0 0 0 0 0 0 0 0 0 0 0 0 0 0 0 0 0 0 0 0 0 0 8 0
0 0 0 0 0 0 0 0 0 0 0 0 0 0 0 0 0 0 0 0 0 0 0 8 12 8 24 32 24 12 0 8 12 8 12 12 12 20 0 0 0 0 0 0 0 0 0 0 0 0 0 0 0 8 12 12 12 8 0 0 0 0 0 0 0 0 0 0 0 0 0 0 0 0 0 0 0 0 0 0 0 0 0 0 0 0 0 0 0 0 0 0 0 0 0 8 8 0 8 8 8 12 0
0 0 0 0 0 0 0 0 0 0 0 0 0 0 0 0 0 0 0 0 8 8 12 12 12 0 20 20 12 0 0 0 0 0 12 12 12 12 0 0 0 0 0 0 0 0 0 0 8 8 8 8 0 0 20 24 24 20 8 0 0 0 0 0 0 0 0 0 0 0 0 0 0 0 0 0 0 0 0 0 0 0 0 0 0 0 0 0 0 0 0 0 0 0 12 20 20 12 12 12 12 12 12
0 0 0 0 0 0 0 0 0 0 0 0 0 0 0 0 0 0 0 0 8 12 12 20 20 12 20 12 8 0 0 0 0 0 12 20 12 8 0 0 0 0 8 12 12 12 8 12 20 20 12 12 8 0 0 20 32 20 8 0 0 0 0 0 8 8 8 0 0 0 0 0 0 0 0 0 0 0 0 0 0 0 0 0 0 0 0 0 0 0 0 0 0 20 32 36 36 36 20 8 0 8 0
0 0 0 0 0 0 0 0 0 0 0 0 0 0 0 0 0 0 0 8 12 20 24 20 20 12 12 8 8 0 0 0 8 32 32 20 12 8 0 0 8 12 20 24 20 24 24 24 24 20 12 8 0 0 0 20 32 12 0 0 0 0 0 0 8 12 12 12 12 20 12 12 8 0 0 0 0 0 0 0 0 0 0 0 0 0 0 0 0 0 0 0 8 24 32 44 56 56 36 12 0 0 0
0 0 0 0 0 0 0 0 0 0 0 0 0 0 0 0 0 0 0 0 8 24 24 20 12 12 8 0 0 8 0 0 8 44 36 32 24 32 32 32 24 24 24 24 24 24 24 20 20 20 20 12 8 0 0 8 20 8 0 0 0 0 0 8 12 20 20 20 20 20 20 12 8 8 8 0 0 0 0 0 0 0 0 0 0 0 0 0 0 0 0 0 8 36 36 44 44 36 32 12 0 0 0
0 0 0 0 0 0 0 0 0 0 0 0 0 0 0 0 0 0 0 0 8 24 20 20 12 8 8 8 8 0 0 0 12 48 44 36 36 44 44 36 36 44 36 32 24 32 32 24 24 20 12 8 0 0 0 12 12 0 0 0 0 0 0 8 12 20 24 24 24 24 24 20 20 12 12 12 8 8 0 0 0 0 0 0 0 0 0 0 0 0 0 8 12 12 36 32 20 12 0 0 0 0 0
0 0 0 0 0 0 0 0 0 0 0 0 0 0 0 0 0 0 0 8 20 24 20 20 12 8 8 8 0 0 0 0 12 48 44 44 44 44 36 32 32 48 44 44 36 32 20 12 12 8 8 0 0 8 12 20 20 8 8 8 8 8 20 24 32 36 36 36 36 36 36 32 32 32 24 24 20 8 0 0 0 0 0 0 0 0 0 0 0 0 0 0 0 0 20 20 12 0 0 0 0 0 0
0 0 0 0 0 0 0 0 0 0 0 0 0 0 0 0 0 0 0 12 32 36 24 20 20 12 12 8 0 8 8 24 36 56 44 44 44 36 32 24 24 36 44 44 44 24 20 12 0 0 0 0 8 32 36 32 24 12 12 12 20 20 44 56 56 56 48 44 36 36 36 32 32 32 24 20 12 0 0 0 0 0 0 0 0 0 0 0 0 0 0 0 0 0 0 0 0 0 0 0 0 0 0
0 0 0 0 0 0 0 0 0 0 0 0 0 0 0 0 8 12 36 56 56 48 32 24 20 12 12 8 12 24 48 76 88 68 48 44 44 32 24 20 12 20 24 32 36 44 32 12 0 0 0 8 32 64 56 44 36 24 24 24 24 24 32 44 44 44 32 12 0 0 0 0 0 0 0 0 0 0 0 0 0 0 0 0 0 0 0 0 0 0 0 0 0 0 0 0 0 0 0 0 0 0 0
0 0 0 0 0 0 0 0 0 0 0 0 0 0 0 12 36 64 76 76 56 24 24 20 12 8 12 24 48 76 88 88 76 48 36 32 32 20 12 0 0 0 0 0 0 20 12 8 0 0 0 36 80 92 68 48 44 36 36 32 32 24 20 12 12 8 8 0 0 0 0 0 0 0 0 0 0 0 0 0 0 0 0 0 0 0 0 0 0 0 0 0 0 0 0 0 0 0 0 0 0 0 0
0 0 0 0 0 0 0 0 0 0 0 0 8 12 20 48 76 80 68 56 36 20 12 12 8 12 36 64 76 88 68 48 32 24 12 8 0 0 0 0 0 0 0 0 0 0 8 8 8 8 12 56 92 76 56 48 48 48 44 36 32 24 20 12 12 12 12 8 0 0 0 0 0 0 0 0 0 0 0 0 0 0 0 0 0 0 0 0 0 0 0 0 0 0 0 0 0 0 0 0 0 0 12
0 0 0 0 0 0 0 0 0 20 24 24 32 48 68 80 80 68 56 44 32 24 32 24 24 44 68 80 80 68 32 8 0 0 0 0 0 0 0 0 0 0 0 0 0 8 20 24 24 32 48 76 88 68 64 64 64 56 44 36 32 20 12 8 8 12 12 12 12 12 8 8 0 0 0 0 0 0 0 0 0 0 0 0 0 0 0 0 0 0 0 0 0 0 0 0 0 0 0 0 0 0 44
0 0 0 0 0 0 0 0 20 68 80 80 76 88 88 76 64 44 36 24 24 32 36 32 36 68 76 76 64 48 20 8 8 0 0 0 0 0 0 0 0 0 8 12 20 24 36 44 48 68 80 92 92 80 80 80 68 48 36 24 20 8 0 0 0 8 8 12 20 20 20 12 8 0 0 0 0 0 0 0 0 0 0 0 0 0 0 0 0 0 0 0 0 0 0 0 0 0 0 0 0 0 32
0 8 0 0 0 8 12 32 64 92 88 88 80 64 48 44 36 32 32 32 36 36 56 36 32 68 68 68 56 44 24 12 8 0 0 8 12 12 12 8 12 12 20 32 44 56 64 68 80 92 92 92 92 92 88 76 56 24 20 12 0 0 0 0 0 0 8 8 12 24 20 12 8 0 0 0 0 0 0 0 0 0 0 0 0 0 0 0 0 0 0 0 0 0 0 0 0 0 0 0 0 0 32
24 56 24 20 32 44 56 68 68 64 56 56 56 32 32 32 32 44 48 56 56 48 68 64 64 68 76 68 48 36 24 20 12 12 20 36 44 36 32 32 24 8 32 56 76 80 80 88 92 92 92 92 92 80 64 44 24 8 0 0 0 0 0 0 0 0 8 0 8 20 12 8 0 0 0 0 0 0 0 0 0 0 0 0 0 0 0 0 0 0 0 0 0 0 0 0 0 0 0 0 8 24 64
48 92 76 68 76 88 76 56 36 44 48 56 48 36 44 48 56 68 68 68 64 48 44 64 80 68 68 64 48 32 24 24 24 36 48 64 64 56 48 44 24 0 36 76 92 92 92 92 92 92 92 80 64 44 24 12 8 0 0 0 0 0 0 0 0 0 0 8 8 8 8 8 8 8 0 0 0 0 0 0 0 0 0 0 0 0 0 0 0 0 0 0 0 0 0 0 0 0 0 8 24 56 88
20 36 80 92 80 56 36 44 56 68 76 68 68 68 64 68 76 76 68 64 64 56 68 80 76 48 36 36 36 32 36 44 44 56 56 64 64 64 56 44 32 36 68 88 92 92 92 92 92 92 88 56 24 12 0 0 0 0 0 8 8 8 8 8 8 8 8 8 8 8 8 8 8 8 8 0 0 0 0 0 0 0 0 0 0 0 0 0 0 0 0 0 0 0 0 0 0 0 0 0 20 48 76
0 0 32 36 32 20 36 64 80 80 80 80 80 88 80 80 80 76 68 68 76 88 88 68 48 32 24 24 36 64 68 76 80 68 68 76 80 64 48 48 56 88 92 92 92 92 92 92 88 68 48 24 0 0 8 8 12 20 20 20 20 20 20 12 12 12 12 12 8 8 8 8 8 0 0 0 0 0 0 0 0 0 0 0 0 0 0 0 0 0 0 0 0 8 8 0 0 0 0 0 8 36 56
8 8 12 20 32 44 68 80 88 92 88 92 92 92 80 88 88 88 88 88 92 92 64 44 32 32 32 36 48 68 76 88 88 80 88 88 80 64 56 64 76 92 92 92 92 92 92 80 64 36 20 20 20 24 36 36 36 36 44 44 36 32 32 24 24 20 12 12 12 8 0 0 0 0 0 0 0 0 0 0 0 0 0 0 0 0 0 0 0 0 0 0 8 32 24 12 8 0 8 8 24 64 76
24 32 36 48 64 76 88 92 88 88 80 76 80 80 88 92 92 92 92 92 92 76 48 44 44 48 48 64 76 68 76 80 80 92 88 80 68 64 64 76 92 92 92 92 92 92 76 56 44 36 36 44 56 64 64 64 64 64 56 48 44 44 44 32 24 20 12 8 8 0 0 0 0 0 0 0 0 0 0 0 0 0 0 0 0 0 0 0 0 0 0 12 24 36 32 36 36 44 64 68 76 88 92
8 20 68 76 76 92 92 88 80 76 76 76 76 92 92 92 92 92 92 88 76 56 56 48 48 64 68 80 92 88 92 88 88 92 92 92 88 88 88 92 92 92 92 92 92 92 68 56 64 68 68 76 88 88 88 76 64 64 56 48 36 32 24 12 8 0 0 0 0 0 0 0 0 0 0 0 0 0 0 0 0 0 0 0 0 0 0 0 0 0 0 12 24 32 44 64 80 80 88 92 92 92 92
24 48 56 56 64 76 68 80 88 80 76 80 92 92 92 92 92 92 92 80 76 68 68 76 80 88 92 92 92 92 92 92 92 92 92 92 92 92 92 92 92 92 92 80 68 68 76 76 80 76 76 80 80 68 68 56 48 48 20 8 8 0 0 0 0 0 0 0 0 0 0 0 0 0 0 0 0 0 0 0 0 0 0 0 0 0 0 0 0 0 8 12 32 48 64 80 92 92 92 92 92 92 92
32 48 56 68 76 76 68 80 92 92 88 92 92 92 92 92 92 92 92 92 92 92 92 92 92 92 92 92 92 92 92 92 92 92 92 92 92 92 92 92 88 68 64 56 36 12 12 12 20 44 48 48 48 44 36 24 12 8 0 0 0 0 0 0 0 0 0 0 0 0 0 0 0 0 0 0 0 0 0 0 0 0 0 0 0 0 0 0 0 0 24 36 64 88 88 92 92 92 92 92 92 92 92
48 56 68 76 80 76 76 76 80 88 92 92 92 92 92 92 92 92 92 92 92 92 92 92 92 92 80 88 92 92 92 92 88 68 44 56 68 56 36 20 8 8 8 8 0 0 0 0 0 0 0 8 8 0 0 0 0 0 0 0 0 0 0 0 0 0 0 0 0 0 0 0 0 0 0 0 0 0 0 0 0 0 0 0 0 0 8 12 24 24 64 80 92 92 92 88 80 92 92 92 92 92 92
56 76 88 88 88 92 92 92 92 92 92 92 92 92 92 80 64 56 88 92 92 92 80 64 56 64 76 88 92 92 92 64 32 8 0 0 8 0 0 0 0 0 0 0 0 0 0 0 0 0 0 0 0 0 0 0 0 0 0 0 0 0 0 0 0 0 0 0 0 0 0 0 0 0 0 0 0 0 0 0 0 0 0 0 8 36 64 80 88 88 88 88 88 92 92 92 92 92 92 92 92 92 92
44 92 92 92 92 92 92 92 92 92 92 88 76 64 56 48 56 56 64 56 56 48 44 48 64 92 92 92 92 92 64 32 12 0 0 0 0 0 0 0 0 0 0 0 0 0 0 0 0 0 0 0 0 0 0 0 0 0 0 0 0 0 0 0 0 0 0 0 0 0 0 0 0 0 0 0 0 0 0 0 0 0 0 0 24 88 92 92 88 68 76 88 92 92 92 92 92 92 92 92 92 92 92
24 56 88 92 92 92 92 92 92 80 64 48 48 36 24 24 32 44 56 48 44 44 56 76 92 92 92 92 80 44 24 8 0 0 0 0 0 0 0 0 0 0 0 0 0 0 0 0 0 0 8 8 8 8 12 12 12 8 8 0 0 0 0 0 0 0 0 0 0 0 0 0 0 0 0 0 0 8 0 0 0 0 8 20 24 36 64 76 80 80 92 92 92 92 92 92 92 92 92 92 92 92 92
8 12 56 68 68 64 48 56 64 48 44 36 32 24 24 32 48 76 88 76 64 68 88 92 80 56 36 24 8 0 0 0 0 0 0 0 0 0 0 0 0 0 0 0 0 0 8 8 12 12 12 12 12 20 20 20 20 12 12 8 8 0 0 0 0 0 0 0 0 0 0 0 0 0 8 12 12 12 12 12 20 20 24 44 68 92 92 76 48 48 48 56 68 88 88 92 92 92 92 92 92 92 92
0 0 0 0 0 0 12 8 8 32 32 32 32 36 44 56 76 92 92 92 88 88 68 44 20 8 0 0 0 0 0 0 0 0 0 0 0 0 0 0 0 0 8 8 8 12 12 20 20 20 20 20 20 20 20 20 20 20 12 8 8 0 0 0 0 0 0 0 0 0 0 0 0 12 24 32 36 36 32 32 32 24 20 24 36 56 56 24 0 8 0 8 8 12 8 32 68 76 88 88 88 92 92
0 0 0 0 8 24 36 36 36 36 36 36 44 48 64 76 88 80 64 36 24 48 12 0 0 0 0 0 0 0 0 0 0 0 0 0 0 0 8 8 8 8 12 12 20 20 24 24 24 24 24 20 20 20 20 20 20 12 12 8 8 0 0 0 0 0 0 0 0 0 0 0 8 24 36 44 48 44 44 36 32 20 12 0 0 0 0 8 20 24 32 36 36 36 48 48 44 56 76 88 92 88 80
0 0 8 20 32 44 48 48 48 44 44 48 56 64 64 64 48 24 8 0 0 0 0 0 0 0 0 0 0 0 0 0 0 0 0 0 0 8 8 8 8 12 12 20 24 24 24 24 24 24 24 24 20 20 20 12 12 12 8 0 0 0 0 0 0 8 12 12 12 12 8 0 0 20 36 44 44 44 36 36 24 12 8 0 0 0 0 12 32 44 56 64 64 56 64 80 92 92 88 88 88 88 88
0 8 20 32 44 48 56 64 64 56 56 56 56 48 36 20 0 0 0 0 0 0 0 0 0 0 0 0 0 8 0 0 0 0 8 0 8 8 8 12 12 12 20 24 24 24 24 24 24 24 20 20 20 20 20 20 20 12 8 8 8 8 0 0 8 32 36 32 24 20 12 8 8 0 20 32 32 32 32 24 12 8 0 0 0 8 8 12 32 56 64 68 68 76 76 80 80 88 76 76 76 80 76
8 12 32 44 56 64 64 64 64 64 56 48 44 20 8 0 0 0 0 0 0 0 0 0 0 0 8 8 12 20 12 12 12 12 8 8 8 8 12 12 12 12 20 24 24 20 20 20 20 20 20 24 24 32 36 32 24 24 20 12 8 8 0 12 32 56 56 44 32 24 20 12 12 0 0 0 8 24 20 12 8 8 8 12 12 20 24 32 44 68 76 76 80 88 88 80 80 76 80 80 80 80 80
8 20 44 56 64 68 64 64 56 56 48 36 24 12 0 0 0 0 0 0 0 0 8 8 8 12 12 20 24 24 20 12 12 8 8 8 12 12 12 12 12 20 20 20 20 20 20 20 20 20 24 32 36 44 36 32 24 32 24 20 12 12 20 36 48 68 64 48 36 32 24 24 20 12 8 12 20 24 20 12 8 8 20 24 36 44 64 68 76 76 76 80 80 80 80 80 80 80 80 80 80 80 80
8 12 44 64 64 68 56 48 44 44 32 24 12 0 0 0 0 0 0 0 8 8 12 12 20 20 24 24 24 20 12 8 8 8 8 12 12 12 12 12 12 20 20 20 20 12 20 20 24 24 32 36 36 36 32 24 24 24 24 24 32 44 56 64 64 56 56 48 44 36 36 36 24 20 12 20 32 24 20 12 12 12 12 24 36 56 68 76 76 76 76 76 76 80 80 80 80 76 76 76 76 76 76
20 32 56 64 64 56 56 44 36 32 20 8 0 0 0 0 0 0 0 8 8 12 12 20 24 24 32 24 12 12 12 8 8 8 8 12 12 12 12 12 12 12 20 20 12 12 12 20 20 24 24 24 32 24 24 20 20 20 20 32 56 64 68 68 64 48 48 48 56 48 44 36 36 32 24 32 32 32 24 20 20 20 20 32 48 56 76 76 76 68 68 68 68 68 68 76 76 68 68 68 68 76 76
32 44 48 48 44 36 32 20 8 0 0 0 0 0 0 0 0 8 8 8 8 12 24 32 36 44 32 20 12 20 20 12 12 8 12 12 12 12 20 20 12 12 20 12 12 8 12 12 20 20 20 20 20 20 12 12 12 20 20 36 64 64 64 64 56 56 48 56 56 64 56 48 44 44 48 48 44 36 32 32 24 24 32 48 68 68 76 76 76 76 76 68 68 64 64 68 68 68 68 68 68 68 68
36 32 32 20 12 0 0 0 0 0 0 0 0 0 0 0 0 8 8 8 12 20 32 44 48 36 24 24 24 24 20 20 20 12 12 12 20 20 20 20 12 12 8 8 8 8 8 8 12 12 12 12 8 8 12 20 24 24 32 44 64 56 56 56 56 56 64 64 64 76 76 68 56 48 68 64 48 36 44 36 32 44 56 68 80 80 80 80 80 80 80 76 76 68 64 68 76 76 76 68 68 68 64
20 32 20 12 8 0 0 0 0 8 8 0 0 0 0 0 0 8 8 8 12 32 44 56 56 32 24 24 32 24 24 24 24 24 20 20 20 20 20 20 12 8 0 0 0 0 0 8 8 12 8 8 8 8 24 36 44 44 44 56 64 64 56 48 56 64 76 80 76 80 88 88 80 76 76 68 56 48 44 44 44 64 76 80 88 80 80 80 80 80 80 80 80 76 80 80 88 80 80 76 68 64 56
0 12 0 0 0 0 0 0 0 0 0 0 0 0 0 0 0 8 8 20 24 44 56 56 48 32 24 24 24 20 24 32 32 24 24 20 20 12 8 8 8 0 0 0 0 0 0 8 12 12 8 12 12 20 48 64 64 56 56 64 68 76 64 64 64 76 88 92 88 88 92 92 92 92 80 80 80 68 64 56 64 80 80 80 80 80 80 80 80 88 80 88 88 88 92 88 80 80 76 68 64 64 56
0 0 0 0 0 0 0 0 0 0 0 0 0 0 0 0 8 12 20 32 44 56 64 48 36 36 32 24 24 24 24 32 32 32 24 20 12 8 0 8 8 0 0 0 0 8 12 12 12 8 12 20 32 36 56 56 56 56 64 76 88 88 88 80 88 88 88 92 92 92 92 92 92 92 92 92 92 88 88 80 80 88 88 80 80 80 88 88 88 92 88 88 92 92 80 76 68 76 68 56 48 56 56
0 0 0 0 0 0 0 0 0 0 0 0 0 0 0 8 12 24 32 32 36 56 48 44 36 36 32 32 32 32 32 32 32 32 24 20 12 8 8 8 8 8 8 12 12 12 12 8 8 20 24 32 36 48 56 48 56 80 88 88 92 92 92 92 92 92 92 92 92 92 92 92 92 92 92 92 92 92 92 92 92 92 92 92 92 88 88 92 92 92 92 88 88 88 76 68 56 44 48 44 36 36 36
0 0 0 0 0 0 0 0 8 12 12 12 8 8 0 8 12 24 32 24 20 44 44 36 36 36 36 36 36 32 32 32 32 36 32 24 20 20 12 12 12 12 20 20 12 8 8 12 24 36 44 36 36 48 56 56 56 76 88 92 92 92 92 92 92 92 92 92 92 92 92 92 92 92 92 92 88 88 88 92 92 92 92 92 92 92 92 92 92 88 88 80 80 80 76 68 56 48 44 36 32 24 20
0 0 0 0 0 0 8 12 12 20 20 20 12 8 8 8 8 8 12 20 32 48 48 44 44 36 36 36 32 24 32 36 36 36 36 32 32 24 24 24 32 24 20 12 8 12 24 36 48 48 24 36 64 64 68 64 68 80 92 92 92 92 92 92 92 92 92 92 92 92 88 80 80 80 92 92 92 92 92 92 92 92 92 92 92 92 92 88 80 68 80 80 80 80 80 76 64 56 48 44 32 20 12
0 0 0 0 0 8 12 20 20 24 32 20 12 12 8 8 8 8 20 32 36 56 56 56 56 44 36 32 24 24 32 44 44 36 44 44 36 36 44 36 36 24 12 12 20 36 48 56 44 32 24 56 88 88 76 80 88 92 92 92 92 92 92 92 92 92 92 92 92 92 92 92 92 92 92 92 92 92 92 92 92 92 92 92 92 92 92 88 80 88 88 80 76 76 76 68 64 64 56 44 36 24 20
0 0 0 0 0 12 20 24 32 44 44 24 8 20 20 24 32 24 32 36 44 56 56 56 56 44 32 32 32 32 32 32 32 32 44 44 48 56 48 48 44 20 24 32 44 56 48 36 24 32 48 64 76 76 80 88 92 92 92 92 92 92 92 92 92 92 92 92 92 92 92 92 92 92 92 92 92 92 92 92 92 92 92 92 92 92 92 92 92 88 88 80 76 76 68 68 64 56 48 44 36 24 12
0 0 8 20 24 20 24 36 48 56 36 20 12 24 36 44 44 36 44 48 64 68 64 64 56 44 36 24 20 20 20 12 20 20 32 48 56 64 64 44 32 44 48 56 48 32 20 12 24 56 64 64 76 92 92 92 92 92 92 92 92 92 92 92 92 92 92 92 92 92 92 92 92 92 92 92 92 92 92 92 92 92 92 92 92 92 92 92 92 88 88 80 76 68 68 68 64 56 48 44 32 24 32
8 12 24 32 36 32 36 48 64 68 24 12 32 48 56 56 56 48 56 68 76 68 64 48 36 24 12 8 8 12 12 8 8 12 32 48 56 44 48 48 56 64 56 44 20 8 0 12 32 48 64 56 64 88 92 92 92 92 92 92 92 92 92 92 92 92 92 92 92 92 92 92 92 92 92 92 92 92 92 92 92 92 92 92 92 92 92 92 92 92 88 88 80 76 68 64 64 56 48 44 36 36 32
20 36 44 48 48 44 48 56 64 64 24 24 56 76 76 68 48 24 44 44 36 24 12 8 8 12 12 8 8 8 8 8 12 24 36 48 48 36 48 64 64 48 32 12 0 0 0 8 24 36 48 76 92 92 92 92 92 92 92 92 92 92 92 92 92 92 92 92 92 92 92 92 92 92 92 92 92 92 92 92 92 92 92 92 92 92 92 92 92 88 88 88 80 76 68 56 48 44 36 36 36 36 32
36 48 64 76 76 64 56 68 64 8 8 20 32 44 44 32 20 12 8 8 8 8 0 8 12 20 12 12 12 12 20 24 36 44 56 48 44 36 44 36 32 24 12 8 8 8 12 12 12 8 56 80 92 92 92 92 92 92 92 92 92 92 92 92 92 92 92 92 92 92 92 92 92 92 92 92 92 92 92 92 92 92 92 92 88 88 88 92 88 80 80 76 68 64 56 44 36 32 32 32 32 32 32
68 88 88 76 68 68 80 68 44 12 8 8 8 8 12 20 24 24 32 20 0 0 8 20 24 24 24 32 36 36 56 64 64 56 48 48 48 48 36 24 20 8 12 12 12 12 20 12 8 0 12 36 56 68 88 92 92 92 92 92 92 92 92 92 92 92 92 92 88 88 88 88 88 88 88 88 88 88 92 92 88 88 88 88 88 88 88 80 76 68 64 56 48 36 32 32 24 32 32 32 32 32 32
80 68 48 48 56 64 68 48 20 20 8 8 8 8 8 32 48 56 64 44 32 24 24 24 24 32 48 64 68 76 56 56 56 56 48 48 44 36 32 24 24 24 24 20 12 8 8 8 0 0 0 12 36 64 68 80 88 88 88 88 80 56 76 80 80 80 80 80 80 80 88 88 88 88 88 88 88 88 88 88 88 88 80 80 76 80 76 56 32 24 24 12 12 8 12 12 20 24 24 24 32 24 24
48 36 32 36 36 44 36 32 20 12 8 8 8 8 12 56 92 92 56 24 20 36 32 24 24 36 48 48 56 64 56 56 48 48 44 36 32 32 36 36 36 32 24 12 8 8 8 0 0 0 0 20 48 48 44 44 36 0 0 0 0 0 0 12 32 48 56 56 56 56 68 64 56 48 48 56 64 68 68 68 76 76 68 64 48 48 12 0 0 0 0 0 0 0 0 0 8 12 12 20 20 12 12
20 20 20 20 24 24 20 20 20 12 12 12 8 8 20 48 76 56 12 0 0 0 0 0 0 0 24 44 44 44 36 24 12 0 0 12 24 48 48 48 44 32 12 8 0 0 0 0 0 0 0 0 0 0 0 0 0 0 0 0 0 0 0 0 8 24 48 64 68 68 68 64 64 56 56 56 48 48 44 36 32 24 12 8 0 0 0 0 0 0 0 0 0 0 0 0 0 0 0 0 0 0 0
12 20 20 20 20 20 12 20 20 20 20 12 8 12 24 32 24 8 0 0 0 0 0 0 0 8 0 0 0 20 20 8 8 8 20 32 44 48 48 44 32 20 8 8 0 0 0 0 0 0 0 0 0 0 8 8 8 12 12 12 12 8 0 0 0 0 0 8 20 24 24 24 24 24 24 24 24 20 20 12 12 8 8 0 0 0 0 0 0 0 0 0 0 0 0 0 0 0 0 0 0 0 0